Back to catalog

STARLINK-30489

AliveCommunicationsVLEO
NORAD 57974·PAYLOAD·🇺🇸 United States

Launched Sep 30, 2023 from Cape Canaveral Space Force Station

Loading…

Next Passes (next 24 hours)

TLE

FreshSource: CelesTrak SupGP

Epoch: Sep 14, 2026, 21:04 UTC

1 57974C 23151L   26257.87826389 -.00069705  00000+0 -25238-2 0  2574
2 57974  43.0035 347.5458 0001733 271.8713 336.2805 15.27624155    14

Track STARLINK-30489 in real time with AllMySat

Download on the App Store